SCP
-0 -0 -0 -0 -0 -0 0 -0 0 0 0 0 0 0 0 0 0 0 0 0 0 0 0 0 0 0 0 0 0 0 0 0 0 0 -0 0 0 0 0 0 0 0 0 0
-0 -0 -0 -0 -0 0 0 0 0 -0 0 0 0 0 0 0 0 0 0 0 0 0 0 0 0 0 0 0 0 0 0 0 0 0 0 0 0 0 0 0 0 0 0 0
-0 -0 -0 -0 -0 -0 0 0 0 0 0 0 0 0 0 0 0 0 0 0 0 0 0 0 0 0 0 0 0 0 0 0 0 0 0 0 0 0 0 0 0 0 0 0
-0 -0 -0 -0 -0 -0 0 0 0 0 0 0 0 0 0 0 0 0 0 0 0 0 0 0 0 -0 -0 0 0 0 0 0 0 0 0 0 0 0 0 0 0 0 0 -0
-0 -0 -0 -0 -0 -0 0 0 0 0 0 0 0 0 0 0 0 0 0 0 0 0 0 0 0 0 0 0 -0 -0 0 0 0 0 0 0 0 -0 -0 0 0 0 0 -0
-0 -0 -0 -0 -0 -0 0 0 0 0 0 0 0 0 0 0 0 0 0 0 0 0 0 0 0 0 0 0 0 0 -0 0 -0 -0 0 0 0 0 -0 -0 0 0 0 0
-0 -0 -0 -0 -0 0 -0 0 0 0 0 0 0 0 0 0 0 0 0 0 0 0 0 0 0 0 0 0 0 0 0 0 0 0 0 0 0 0 0 0 0 1 1 0
0 0 0 0 0 0 0 0 0 0 0 0 0 0 0 0 0 0 0 0 0 0 0 0 0 0 0 0 0 0 0 0 0 0 0 0 0 0 0 0 -0 0 1 1
0 0 0 0 0 0 0 0 0 0 0 0 0 0 0 0 0 0 0 0 0 0 0 0 0 0 0 0 0 0 0 0 0 0 0 0 0 0 1 0 -0 0 1 1
0 0 0 0 0 0 0 0 0 0 0 0 0 0 0 0 0 0 0 0 0 0 0 0 0 0 0 0 0 0 0 0 0 0 0 0 0 0 1 0 0 0 0 0
0 0 0 0 0 0 0 0 0 0 0 0 0 0 0 0 0 0 0 0 0 0 0 0 0 0 0 0 0 0 0 0 0 0 0 0 0 0 0 0 0 -0 0 0
0 0 0 0 0 0 0 0 0 0 0 0 0 0 0 0 0 0 0 0 0 0 0 0 0 0 0 0 0 0 0 0 0 0 0 0 0 0 0 0 0 0 0 0
0 0 0 0 0 0 0 0 0 0 0 0 0 0 0 0 0 0 0 0 0 0 0 0 0 0 0 0 0 0 0 0 0 0 0 0 0 0 0 0 0 0 0 0
0 0 0 0 0 0 0 0 0 0 0 0 0 0 -0 0 0 0 0 0 0 0 0 0 0 0 0 0 0 0 0 0 0 0 0 0 0 0 -0 0 0 0 0 0
0 0 0 0 0 0 0 0 0 0 0 0 0 0 0 0 0 0 0 0 0 0 0 0 0 0 0 0 0 0 0 0 0 0 0 0 -0 0 0 0 -0 -0 0 0
0 0 0 0 0 0 0 0 0 0 0 0 0 0 0 0 0 0 0 0 0 0 0 0 0 0 0 0 0 0 0 0 -0 0 0 0 0 0 0 0 -0 0 0 0
0 0 0 0 0 0 0 0 0 0 0 0 0 0 0 0 0 0 0 0 0 0 0 0 0 0 0 0 0 -0 0 -0 -0 -0 0 0 0 0 0 0 -0 0 0 0
0 0 0 0 -0 0 0 0 0 0 0 0 0 0 0 0 0 0 0 0 0 0 0 0 0 0 0 0 0 0 0 -0 0 0 0 0 0 0 0 0 0 0 0 0
0 0 -0 0 0 0 0 0 0 0 0 0 0 0 0 0 0 0 0 0 0 0 0 0 0 0 0 0 0 0 -0 0 -0 -0 0 0 0 0 0 0 0 0 0 0
0 0 0 0 0 0 0 0 0 0 0 0 0 0 0 0 0 0 0 0 0 0 0 0 0 0 0 0 0 -0 -0 -0 -0 -0 -0 0 0 0 -0 0 0 0 0 0
0 0 0 0 0 0 0 0 0 0 0 0 0 0 0 0 0 0 0 0 0 0 0 0 0 0 0 0 0 0 -0 0 0 -0 -0 -0 0 0 0 0 0 0 0 0
0 0 0 0 0 0 0 0 0 0 0 0 0 0 0 0 0 0 0 0 0 0 0 0 0 0 0 0 0 -0 -0 -0 -0 0 -0 0 0 0 0 0 0 0 0 0
0 0 0 0 0 0 0 0 0 0 0 0 0 0 0 0 -0 0 0 0 0 0 0 0 0 0 0 0 0 -0 -0 -0 -0 0 0 0 0 0 0 0 0 0 0 0
0 0 0 0 0 0 0 0 0 0 0 0 0 0 0 0 -0 -0 -0 0 0 0 0 0 0 0 0 0 -0 -0 -0 -0 0 0 0 0 0 0 0 0 0 -0 -0 0
0 0 0 0 0 0 0 0 0 0 0 0 0 0 -0 -0 -0 -0 0 0 0 0 0 0 0 0 0 -0 -0 -0 -0 -0 -0 0 0 0 0 0 0 0 0 0 0 0
0 0 0 0 0 0 0 0 0 0 0 0 0 -0 -0 -0 -0 -0 0 0 0 0 0 0 0 0 0 0 -0 -0 -0 -0 -0 -0 -0 0 0 0 0 0 0 0 0 0
0 0 0 0 0 0 0 0 0 0 0 0 -0 -0 -0 -0 -0 -0 -0 0 0 -0 0 0 0 0 0 0 0 -0 -0 -0 -0 -0 -0 -0 0 0 0 0 0 0 0 0
Wind_Speed_500mb
59 61 60 59 54 45 28 8 3 17 27 4 3 4 9 17 17 6 10 9 9 6 5 9 11 8 5 45 30 10 3 6 8 16 17 14 14 16 6 9 13 7 10 14
59 60 58 53 51 48 43 14 5 28 19 3 7 14 9 9 21 23 12 10 10 9 10 11 10 16 31 49 26 10 11 7 9 18 15 11 10 6 7 5 6 12 8 13
58 60 60 52 32 41 34 10 7 6 14 6 6 10 9 14 27 24 22 8 16 15 14 5 8 16 17 38 30 48 21 8 7 5 14 10 14 16 11 11 5 6 10 13
55 59 61 56 39 33 27 16 7 11 7 10 16 6 11 10 16 19 30 13 16 10 10 15 13 9 16 27 26 20 7 4 7 10 17 15 12 14 18 12 12 6 20 12
51 56 59 59 51 28 23 13 13 17 15 23 15 14 10 11 9 11 10 8 12 11 3 5 9 6 8 11 13 7 9 7 9 11 12 16 32 10 15 16 17 9 12 11
45 50 53 55 53 45 23 29 15 8 13 16 9 10 11 14 11 14 24 14 9 12 19 41 38 8 14 17 10 8 6 3 6 10 6 20 23 2 8 7 14 13 13 23
40 43 45 45 47 43 32 35 15 10 8 6 6 19 15 17 20 5 28 30 16 28 37 29 22 37 32 38 27 27 11 4 8 10 1 14 9 4 4 8 10 27 26 29
36 38 39 38 36 34 21 33 28 11 6 18 12 27 13 21 28 17 12 26 27 34 15 9 11 11 14 11 15 15 16 7 5 7 10 22 28 14 13 5 7 27 24 33
34 35 36 35 32 29 11 22 23 9 7 7 12 15 12 3 6 13 14 35 35 24 6 7 2 5 6 9 16 15 4 13 12 5 8 12 7 4 14 7 9 31 38 29
31 33 34 33 31 27 18 13 20 16 10 13 23 8 4 8 7 3 7 24 24 28 6 1 5 7 7 6 8 13 11 7 8 10 10 9 10 27 15 4 11 23 35 41
29 31 31 31 29 28 21 12 27 22 11 44 10 6 10 17 13 4 12 11 17 11 10 5 6 5 6 8 6 6 4 7 7 6 7 7 40 12 1 2 7 8 26 41
28 28 29 30 30 28 28 26 21 21 27 34 50 26 25 40 29 21 6 5 9 5 6 3 2 5 5 6 7 9 3 4 5 3 8 16 26 11 10 6 10 8 21 33
24 26 29 29 29 30 32 33 30 28 17 35 4 6 11 3 15 17 21 9 7 8 9 11 6 6 4 5 8 8 8 8 6 5 9 22 41 33 27 25 23 12 13 19
21 23 24 26 27 28 31 28 11 17 14 9 13 16 42 11 27 31 20 32 15 10 19 11 6 5 13 7 11 11 20 9 9 10 24 51 51 50 35 29 33 33 21 13
17 22 25 28 29 28 27 8 5 10 10 8 30 37 5 12 12 6 22 14 18 17 10 7 7 9 6 13 10 21 22 17 14 12 19 17 32 34 38 34 39 31 20 16
18 24 30 31 33 30 21 3 2 5 13 11 8 21 16 17 5 13 17 28 29 29 15 10 9 13 5 6 8 24 43 50 38 25 46 52 51 47 39 40 42 40 31 25
21 26 28 32 32 26 7 5 7 17 19 4 14 18 13 21 17 12 21 26 31 30 14 11 10 12 13 5 20 62 53 59 64 56 44 45 47 38 38 40 29 29 28 34
22 25 30 29 13 8 11 19 14 13 4 5 4 10 20 19 11 13 17 41 19 13 11 5 8 7 14 9 27 37 33 37 32 32 39 49 51 54 54 51 44 37 29 16
19 22 22 5 5 7 21 27 21 8 4 3 2 4 7 18 11 18 13 9 2 8 10 9 9 6 9 8 13 25 39 37 49 60 39 29 31 41 30 52 51 40 30 28
12 14 7 6 10 23 26 7 3 2 4 6 7 9 7 10 10 9 14 10 5 4 8 6 7 7 5 13 28 47 51 65 60 52 53 45 31 27 25 23 56 42 18 24
4 5 4 9 17 12 5 3 4 4 5 10 11 15 8 10 3 5 5 7 6 5 2 5 5 6 4 27 46 61 71 72 58 45 45 40 32 31 29 19 12 36 18 19
6 14 22 6 4 4 3 5 5 7 7 14 12 16 16 9 5 2 6 5 7 9 19 5 6 1 34 63 77 84 80 61 54 43 41 33 35 31 23 19 10 14 18 24
4 3 4 4 4 4 5 4 6 4 6 11 13 10 7 4 2 4 3 5 8 27 4 5 5 40 63 76 71 72 61 49 43 41 37 30 32 18 18 22 23 24 20 21
3 5 6 8 8 9 9 9 8 11 16 20 35 11 10 5 1 2 4 6 7 5 5 7 16 67 79 79 82 67 61 46 34 23 24 24 26 28 24 18 23 28 23 24
5 6 8 11 23 21 28 26 12 15 23 23 14 4 8 3 1 2 5 5 6 5 5 14 64 88 88 78 83 67 51 44 31 23 19 19 17 22 31 27 22 23 20 35
7 13 8 20 19 16 18 8 13 13 24 13 5 0 2 4 2 3 5 2 6 6 8 59 89 97 88 79 60 48 36 33 32 22 23 27 26 26 26 23 25 22 26 30
9 13 21 34 42 34 23 11 18 26 23 4 5 4 5 7 3 4 5 6 8 51 61 70 72 61 66 54 51 47 40 40 42 24 17 19 15 18 23 21 19 17 15 16
Wind_Direction_500mb
5 5 4 358 354 9 12 43 33 181 149 85 216 199 216 308 317 24 58 99 35 78 321 341 38 355 322 9 7 2 335 207 240 212 272 221 182 204 146 131 271 231 165 264
4 6 7 5 353 1 7 356 334 180 191 59 333 305 312 349 5 8 2 25 54 7 50 18 352 6 35 19 27 23 322 350 357 348 346 1 78 93 123 142 106 226 145 266
4 5 8 9 6 353 8 21 26 52 246 51 38 339 309 332 31 50 32 41 48 30 14 38 337 3 356 2 25 26 33 60 117 211 268 268 304 330 335 114 108 256 211 281
5 5 7 9 12 357 11 26 35 18 319 329 330 287 336 8 8 21 22 20 43 49 350 346 358 356 336 347 37 19 66 300 27 284 277 325 327 344 332 316 237 180 283 201
5 6 7 8 13 19 30 34 10 348 304 311 336 2 343 19 354 34 4 50 346 23 351 231 280 317 16 246 324 47 345 282 348 305 308 329 313 278 265 274 287 286 307 291
5 7 9 10 13 22 37 22 6 335 309 345 28 346 360 35 16 350 6 333 336 338 317 307 296 288 300 259 246 295 222 181 347 258 344 330 297 151 92 347 21 332 8 295
4 6 9 14 18 21 30 26 12 356 293 14 12 337 6 9 7 306 338 22 23 339 329 326 321 325 314 282 266 220 212 223 174 254 204 245 254 305 343 4 2 8 340 335
359 2 5 9 17 22 24 26 29 6 304 314 335 351 9 1 1 1 323 20 349 345 349 16 358 336 344 316 248 252 180 162 248 206 204 272 290 310 309 43 17 12 353 354
354 357 360 2 5 15 17 15 9 5 313 231 349 327 349 326 325 347 330 337 359 1 81 62 323 263 224 295 323 335 349 208 190 192 209 244 336 60 311 199 271 351 355 357
349 350 354 355 356 6 17 351 356 2 296 279 315 293 279 340 16 284 338 357 351 16 34 85 217 250 266 291 309 318 338 356 210 249 242 268 357 310 340 179 283 338 357 348
343 345 349 351 353 356 5 332 334 342 291 300 295 227 290 306 304 166 307 357 4 20 41 55 315 347 323 308 350 315 300 309 300 325 226 280 353 323 60 58 309 7 11 354
338 342 345 347 348 351 352 348 333 305 280 274 295 294 283 269 279 250 230 241 301 168 82 39 52 322 313 281 278 339 333 169 275 219 253 292 314 262 241 264 292 302 3 356
335 340 342 343 345 347 350 351 341 350 324 311 279 354 23 203 203 228 251 258 173 169 163 170 208 237 137 267 255 288 294 195 224 356 305 276 293 294 255 253 267 263 339 349
330 338 345 347 347 346 344 348 7 14 334 301 307 269 288 248 225 237 271 247 214 210 194 179 188 197 217 231 240 261 256 225 224 250 263 277 288 262 262 249 250 261 253 281
321 331 334 339 340 343 339 336 343 42 349 296 292 326 43 312 293 236 233 243 226 211 178 184 219 218 237 246 255 263 234 237 222 228 279 286 282 306 273 259 261 255 240 244
310 323 327 329 330 333 339 243 315 281 321 325 314 317 317 2 14 216 252 270 257 240 197 204 223 220 232 258 253 247 266 268 256 243 284 290 294 286 270 248 254 271 236 254
306 320 325 328 331 337 334 301 296 300 308 280 300 306 309 341 341 325 276 287 246 232 213 215 221 196 212 249 266 274 272 276 285 279 271 276 274 260 279 272 276 278 286 275
307 319 323 330 349 75 29 356 321 317 271 236 291 288 314 9 341 312 295 301 226 214 218 198 211 209 216 254 249 290 329 332 342 324 287 274 288 292 276 276 264 276 302 293
313 321 325 341 52 8 339 321 314 266 247 296 245 280 279 343 322 301 308 307 236 209 199 225 179 205 223 274 358 347 344 339 327 327 332 328 323 329 300 264 245 250 282 309
313 327 348 10 353 334 318 312 316 232 229 239 250 251 269 305 332 309 326 297 262 233 244 190 215 250 184 345 338 331 325 327 322 325 332 330 307 328 353 265 251 250 284 311
306 335 270 320 319 312 309 298 220 170 254 224 243 249 260 288 275 272 300 302 284 290 117 249 249 216 231 327 319 313 311 313 305 304 294 289 289 312 327 344 302 243 277 285
272 286 292 291 278 264 319 264 256 192 246 198 206 245 232 250 275 293 306 285 310 256 333 268 271 295 315 305 308 309 309 305 298 289 278 272 269 286 302 297 298 239 271 268
299 23 308 241 207 6 221 247 238 231 224 230 232 236 215 212 281 288 319 287 260 318 287 273 280 292 299 306 314 319 325 313 290 279 271 264 259 278 288 290 266 267 264 252
215 218 272 197 220 235 202 210 219 254 250 278 283 243 190 182 44 248 271 269 303 283 290 287 293 301 305 313 318 322 332 329 322 289 277 266 260 268 267 264 279 281 283 244
234 244 238 226 232 258 267 287 296 292 289 295 295 319 156 117 241 207 310 289 298 302 268 276 304 310 310 316 326 326 347 348 334 322 301 277 271 277 260 255 271 271 247 249
235 234 264 266 284 284 339 271 308 356 342 342 315 336 118 191 203 239 244 270 253 263 250 293 311 314 318 323 336 344 354 2 350 324 290 271 259 252 247 263 265 264 253 251
233 245 248 273 283 280 288 304 301 311 338 264 237 304 198 140 250 251 185 226 236 275 290 300 314 323 338 350 352 360 1 3 356 353 328 288 259 245 244 271 279 269 243 240
Wind_Speed_850mb
59 61 60 59 54 45 28 8 3 17 27 4 3 4 9 17 17 6 10 9 9 6 5 9 11 8 5 45 30 10 3 6 8 16 17 14 14 16 6 9 13 7 10 14
59 60 58 53 51 48 43 14 5 28 19 3 7 14 9 9 21 23 12 10 10 9 10 11 10 16 31 49 26 10 11 7 9 18 15 11 10 6 7 5 6 12 8 13
58 60 60 52 32 41 34 10 7 6 14 6 6 10 9 14 27 24 22 8 16 15 14 5 8 16 17 38 30 48 21 8 7 5 14 10 14 16 11 11 5 6 10 13
55 59 61 56 39 33 27 16 7 11 7 10 16 6 11 10 16 19 30 13 16 10 10 15 13 9 16 27 26 20 7 4 7 10 17 15 12 14 18 12 12 6 20 12
51 56 59 59 51 28 23 13 13 17 15 23 15 14 10 11 9 11 10 8 12 11 3 5 9 6 8 11 13 7 9 7 9 11 12 16 32 10 15 16 17 9 12 11
45 50 53 55 53 45 23 29 15 8 13 16 9 10 11 14 11 14 24 14 9 12 19 41 38 8 14 17 10 8 6 3 6 10 6 20 23 2 8 7 14 13 13 23
40 43 45 45 47 43 32 35 15 10 8 6 6 19 15 17 20 5 28 30 16 28 37 29 22 37 32 38 27 27 11 4 8 10 1 14 9 4 4 8 10 27 26 29
36 38 39 38 36 34 21 33 28 11 6 18 12 27 13 21 28 17 12 26 27 34 15 9 11 11 14 11 15 15 16 7 5 7 10 22 28 14 13 5 7 27 24 33
34 35 36 35 32 29 11 22 23 9 7 7 12 15 12 3 6 13 14 35 35 24 6 7 2 5 6 9 16 15 4 13 12 5 8 12 7 4 14 7 9 31 38 29
31 33 34 33 31 27 18 13 20 16 10 13 23 8 4 8 7 3 7 24 24 28 6 1 5 7 7 6 8 13 11 7 8 10 10 9 10 27 15 4 11 23 35 41
29 31 31 31 29 28 21 12 27 22 11 44 10 6 10 17 13 4 12 11 17 11 10 5 6 5 6 8 6 6 4 7 7 6 7 7 40 12 1 2 7 8 26 41
28 28 29 30 30 28 28 26 21 21 27 34 50 26 25 40 29 21 6 5 9 5 6 3 2 5 5 6 7 9 3 4 5 3 8 16 26 11 10 6 10 8 21 33
24 26 29 29 29 30 32 33 30 28 17 35 4 6 11 3 15 17 21 9 7 8 9 11 6 6 4 5 8 8 8 8 6 5 9 22 41 33 27 25 23 12 13 19
21 23 24 26 27 28 31 28 11 17 14 9 13 16 42 11 27 31 20 32 15 10 19 11 6 5 13 7 11 11 20 9 9 10 24 51 51 50 35 29 33 33 21 13
17 22 25 28 29 28 27 8 5 10 10 8 30 37 5 12 12 6 22 14 18 17 10 7 7 9 6 13 10 21 22 17 14 12 19 17 32 34 38 34 39 31 20 16
18 24 30 31 33 30 21 3 2 5 13 11 8 21 16 17 5 13 17 28 29 29 15 10 9 13 5 6 8 24 43 50 38 25 46 52 51 47 39 40 42 40 31 25
21 26 28 32 32 26 7 5 7 17 19 4 14 18 13 21 17 12 21 26 31 30 14 11 10 12 13 5 20 62 53 59 64 56 44 45 47 38 38 40 29 29 28 34
22 25 30 29 13 8 11 19 14 13 4 5 4 10 20 19 11 13 17 41 19 13 11 5 8 7 14 9 27 37 33 37 32 32 39 49 51 54 54 51 44 37 29 16
19 22 22 5 5 7 21 27 21 8 4 3 2 4 7 18 11 18 13 9 2 8 10 9 9 6 9 8 13 25 39 37 49 60 39 29 31 41 30 52 51 40 30 28
12 14 7 6 10 23 26 7 3 2 4 6 7 9 7 10 10 9 14 10 5 4 8 6 7 7 5 13 28 47 51 65 60 52 53 45 31 27 25 23 56 42 18 24
4 5 4 9 17 12 5 3 4 4 5 10 11 15 8 10 3 5 5 7 6 5 2 5 5 6 4 27 46 61 71 72 58 45 45 40 32 31 29 19 12 36 18 19
6 14 22 6 4 4 3 5 5 7 7 14 12 16 16 9 5 2 6 5 7 9 19 5 6 1 34 63 77 84 80 61 54 43 41 33 35 31 23 19 10 14 18 24
4 3 4 4 4 4 5 4 6 4 6 11 13 10 7 4 2 4 3 5 8 27 4 5 5 40 63 76 71 72 61 49 43 41 37 30 32 18 18 22 23 24 20 21
3 5 6 8 8 9 9 9 8 11 16 20 35 11 10 5 1 2 4 6 7 5 5 7 16 67 79 79 82 67 61 46 34 23 24 24 26 28 24 18 23 28 23 24
5 6 8 11 23 21 28 26 12 15 23 23 14 4 8 3 1 2 5 5 6 5 5 14 64 88 88 78 83 67 51 44 31 23 19 19 17 22 31 27 22 23 20 35
7 13 8 20 19 16 18 8 13 13 24 13 5 0 2 4 2 3 5 2 6 6 8 59 89 97 88 79 60 48 36 33 32 22 23 27 26 26 26 23 25 22 26 30
9 13 21 34 42 34 23 11 18 26 23 4 5 4 5 7 3 4 5 6 8 51 61 70 72 61 66 54 51 47 40 40 42 24 17 19 15 18 23 21 19 17 15 16
Wind_Direction_850mb
5 5 4 358 354 9 12 43 33 181 149 85 216 199 216 308 317 24 58 99 35 78 321 341 38 355 322 9 7 2 335 207 240 212 272 221 182 204 146 131 271 231 165 264
4 6 7 5 353 1 7 356 334 180 191 59 333 305 312 349 5 8 2 25 54 7 50 18 352 6 35 19 27 23 322 350 357 348 346 1 78 93 123 142 106 226 145 266
4 5 8 9 6 353 8 21 26 52 246 51 38 339 309 332 31 50 32 41 48 30 14 38 337 3 356 2 25 26 33 60 117 211 268 268 304 330 335 114 108 256 211 281
5 5 7 9 12 357 11 26 35 18 319 329 330 287 336 8 8 21 22 20 43 49 350 346 358 356 336 347 37 19 66 300 27 284 277 325 327 344 332 316 237 180 283 201
5 6 7 8 13 19 30 34 10 348 304 311 336 2 343 19 354 34 4 50 346 23 351 231 280 317 16 246 324 47 345 282 348 305 308 329 313 278 265 274 287 286 307 291
5 7 9 10 13 22 37 22 6 335 309 345 28 346 360 35 16 350 6 333 336 338 317 307 296 288 300 259 246 295 222 181 347 258 344 330 297 151 92 347 21 332 8 295
4 6 9 14 18 21 30 26 12 356 293 14 12 337 6 9 7 306 338 22 23 339 329 326 321 325 314 282 266 220 212 223 174 254 204 245 254 305 343 4 2 8 340 335
359 2 5 9 17 22 24 26 29 6 304 314 335 351 9 1 1 1 323 20 349 345 349 16 358 336 344 316 248 252 180 162 248 206 204 272 290 310 309 43 17 12 353 354
354 357 360 2 5 15 17 15 9 5 313 231 349 327 349 326 325 347 330 337 359 1 81 62 323 263 224 295 323 335 349 208 190 192 209 244 336 60 311 199 271 351 355 357
349 350 354 355 356 6 17 351 356 2 296 279 315 293 279 340 16 284 338 357 351 16 34 85 217 250 266 291 309 318 338 356 210 249 242 268 357 310 340 179 283 338 357 348
343 345 349 351 353 356 5 332 334 342 291 300 295 227 290 306 304 166 307 357 4 20 41 55 315 347 323 308 350 315 300 309 300 325 226 280 353 323 60 58 309 7 11 354
338 342 345 347 348 351 352 348 333 305 280 274 295 294 283 269 279 250 230 241 301 168 82 39 52 322 313 281 278 339 333 169 275 219 253 292 314 262 241 264 292 302 3 356
335 340 342 343 345 347 350 351 341 350 324 311 279 354 23 203 203 228 251 258 173 169 163 170 208 237 137 267 255 288 294 195 224 356 305 276 293 294 255 253 267 263 339 349
330 338 345 347 347 346 344 348 7 14 334 301 307 269 288 248 225 237 271 247 214 210 194 179 188 197 217 231 240 261 256 225 224 250 263 277 288 262 262 249 250 261 253 281
321 331 334 339 340 343 339 336 343 42 349 296 292 326 43 312 293 236 233 243 226 211 178 184 219 218 237 246 255 263 234 237 222 228 279 286 282 306 273 259 261 255 240 244
310 323 327 329 330 333 339 243 315 281 321 325 314 317 317 2 14 216 252 270 257 240 197 204 223 220 232 258 253 247 266 268 256 243 284 290 294 286 270 248 254 271 236 254
306 320 325 328 331 337 334 301 296 300 308 280 300 306 309 341 341 325 276 287 246 232 213 215 221 196 212 249 266 274 272 276 285 279 271 276 274 260 279 272 276 278 286 275
307 319 323 330 349 75 29 356 321 317 271 236 291 288 314 9 341 312 295 301 226 214 218 198 211 209 216 254 249 290 329 332 342 324 287 274 288 292 276 276 264 276 302 293
313 321 325 341 52 8 339 321 314 266 247 296 245 280 279 343 322 301 308 307 236 209 199 225 179 205 223 274 358 347 344 339 327 327 332 328 323 329 300 264 245 250 282 309
313 327 348 10 353 334 318 312 316 232 229 239 250 251 269 305 332 309 326 297 262 233 244 190 215 250 184 345 338 331 325 327 322 325 332 330 307 328 353 265 251 250 284 311
306 335 270 320 319 312 309 298 220 170 254 224 243 249 260 288 275 272 300 302 284 290 117 249 249 216 231 327 319 313 311 313 305 304 294 289 289 312 327 344 302 243 277 285
272 286 292 291 278 264 319 264 256 192 246 198 206 245 232 250 275 293 306 285 310 256 333 268 271 295 315 305 308 309 309 305 298 289 278 272 269 286 302 297 298 239 271 268
299 23 308 241 207 6 221 247 238 231 224 230 232 236 215 212 281 288 319 287 260 318 287 273 280 292 299 306 314 319 325 313 290 279 271 264 259 278 288 290 266 267 264 252
215 218 272 197 220 235 202 210 219 254 250 278 283 243 190 182 44 248 271 269 303 283 290 287 293 301 305 313 318 322 332 329 322 289 277 266 260 268 267 264 279 281 283 244
234 244 238 226 232 258 267 287 296 292 289 295 295 319 156 117 241 207 310 289 298 302 268 276 304 310 310 316 326 326 347 348 334 322 301 277 271 277 260 255 271 271 247 249
235 234 264 266 284 284 339 271 308 356 342 342 315 336 118 191 203 239 244 270 253 263 250 293 311 314 318 323 336 344 354 2 350 324 290 271 259 252 247 263 265 264 253 251
233 245 248 273 283 280 288 304 301 311 338 264 237 304 198 140 250 251 185 226 236 275 290 300 314 323 338 350 352 360 1 3 356 353 328 288 259 245 244 271 279 269 243 240